Location: Lane
(33.5226°N, 79.8788°W)
Time: 09:25:05
(UTC+00:00)

Tiros 1 despin weight - Pass Details

Date: 03 October 2022
Orbit: 590 x 637 km, 48.2° (Epoch: 28 November)

Event Time Altitude Azimuth Distance (km) Brightness Sun altitude
Rises 23:23:55 0° 300° (WNW) 2,863 ? -5.6°
Reaches altitude 10° 23:27:32 10° 330° (NNW) 1,972 ? -6.3°
Maximum altitude 23:29:31 13° 356° (N) 1,812 ? -6.7°
Drops below altitude 10° 23:31:31 10° 23° (NNE) 1,986 ? -7.2°
Enters shadow 23:34:31 - 48° (NE) 2,707 ? -7.8°
Sets 23:35:11 0° 52° (NE) 2,906 - -7.9°
